| time (UTC) | temp C | wind direction | speed KPH | gust KPH | rain 1hr cm | rain 24hr cm | rain mn cm | humidity % | barometer mb |
| 20260903030052 | 13 | 154 | 3.2 | 19.3 | 0.00 | 1.63 | 1.63 | 93 | 1009.2 |
| 20260903025539 | 13 | 298 | 0.0 | 19.3 | 0.00 | 1.63 | 1.63 | 93 | 1009.2 |
| 20260903025026 | 13 | 215 | 8.0 | 19.3 | 0.00 | 1.63 | 1.63 | 93 | 1009.1 |
| 20260903024514 | 13 | 0 | 3.2 | 16.1 | 0.00 | 1.63 | 1.63 | 93 | 1009.1 |
| 20260903024000 | 13 | 0 | 6.4 | 6.4 | 0.00 | 1.63 | 1.63 | 93 | 1009.1 |
| 20260903023447 | 13 | 0 | 4.8 | 20.9 | 0.00 | 1.63 | 1.63 | 93 | 1009.2 |
| 20260903022935 | 13 | 215 | 8.0 | 20.9 | 0.00 | 1.63 | 1.63 | 93 | 1009.0 |
| 20260903022421 | 13 | 168 | 1.6 | 20.9 | 0.00 | 1.63 | 1.63 | 93 | 1009.0 |
| 20260903021909 | 13 | 256 | 0.0 | 24.1 | 0.00 | 1.63 | 1.63 | 93 | 1009.0 |
| 20260903021355 | 13 | 210 | 4.8 | 24.1 | 0.00 | 1.63 | 1.63 | 93 | 1009.0 |
| 20260903020842 | 13 | 208 | 8.0 | 24.1 | 0.00 | 1.63 | 1.63 | 93 | 1008.9 |
| 20260903020329 | 13 | 173 | 8.0 | 20.9 | 0.00 | 1.63 | 1.63 | 93 | 1009.0 |
| 20260903015817 | 13 | 215 | 0.0 | 20.9 | 0.00 | 1.63 | 1.63 | 93 | 1009.1 |
| 20260903015305 | 13 | 226 | 0.0 | 12.9 | 0.00 | 1.63 | 1.63 | 94 | 1009.0 |
| 20260903014750 | 13 | 205 | 0.0 | 8.0 | 0.00 | 1.63 | 1.63 | 94 | 1009.1 |
| 20260903014237 | 13 | 264 | 1.6 | 16.1 | 0.00 | 1.63 | 1.63 | 94 | 1009.1 |
| 20260903013724 | 13 | 193 | 1.6 | 16.1 | 0.00 | 1.63 | 1.63 | 94 | 1009.0 |
| 20260903013212 | 13 | 163 | 0.0 | 16.1 | 0.00 | 1.63 | 1.63 | 94 | 1009.0 |
| 20260903012659 | 13 | 224 | 4.8 | 12.9 | 0.00 | 1.63 | 1.63 | 93 | 1008.9 |
| 20260903012146 | 14 | 194 | 0.0 | 11.3 | 0.00 | 1.63 | 1.63 | 93 | 1008.9 |
| 20260903011632 | 14 | 215 | 1.6 | 6.4 | 0.00 | 1.63 | 1.63 | 94 | 1008.9 |
| 20260903010053 | 14 | 120 | 1.6 | 20.9 | 0.00 | 1.63 | 1.63 | 94 | 1008.8 |
| 20260903005540 | 14 | 0 | 0.0 | 16.1 | 0.00 | 1.63 | 1.63 | 94 | 1008.8 |
| 20260903005027 | 14 | 201 | 1.6 | 16.1 | 0.00 | 1.63 | 1.63 | 94 | 1008.8 |
| 20260903004514 | 13 | 0 | 0.0 | 16.1 | 0.00 | 1.63 | 1.63 | 94 | 1008.8 |
| 20260903004001 | 14 | 0 | 1.6 | 16.1 | 0.00 | 1.63 | 1.63 | 94 | 1008.8 |
| 20260903003448 | 14 | 0 | 0.0 | 20.9 | 0.00 | 1.63 | 1.63 | 94 | 1008.8 |
| 20260903002935 | 15 | 238 | 1.6 | 20.9 | 0.00 | 1.63 | 1.63 | 94 | 1008.7 |
| 20260903002422 | 15 | 268 | 4.8 | 20.9 | 0.00 | 1.63 | 1.63 | 94 | 1008.7 |
| 20260903001909 | 14 | 296 | 3.2 | 11.3 | 0.00 | 1.63 | 1.63 | 95 | 1008.7 |
| 20260903001356 | 14 | 233 | 0.0 | 8.0 | 0.00 | 1.63 | 1.63 | 95 | 1008.6 |
| 20260903000843 | 14 | 281 | 1.6 | 8.0 | 0.00 | 1.63 | 1.63 | 95 | 1008.6 |
| 20260903000332 | 14 | 0 | 0.0 | 0.0 | 0.00 | 1.63 | 1.63 | 95 | 1008.5 |
| 20260902235817 | 13 | 0 | 0.0 | 0.0 | 0.03 | 1.63 | 1.63 | 95 | 1008.5 |
| 20260902235306 | 13 | 0 | 0.0 | 0.0 | 0.03 | 1.63 | 1.63 | 95 | 1008.4 |
| 20260902234751 | 14 | 0 | 0.0 | 4.8 | 0.08 | 1.63 | 1.63 | 95 | 1008.4 |
| 20260902234238 | 13 | 0 | 0.0 | 4.8 | 0.08 | 1.63 | 1.63 | 95 | 1008.3 |
| 20260902233725 | 13 | 218 | 0.0 | 4.8 | 0.08 | 1.63 | 1.63 | 95 | 1008.2 |
| 20260902233212 | 13 | 0 | 0.0 | 0.0 | 0.08 | 1.63 | 1.63 | 95 | 1008.1 |
| 20260902232659 | 13 | 0 | 0.0 | 0.0 | 0.08 | 1.63 | 1.63 | 95 | 1008.1 |
| 20260902232146 | 13 | 0 | 0.0 | 0.0 | 0.08 | 1.63 | 1.63 | 95 | 1008.0 |
| 20260902231633 | 13 | 0 | 0.0 | 0.0 | 0.08 | 1.63 | 1.63 | 95 | 1008.0 |
| 20260902231120 | 13 | 0 | 0.0 | 0.0 | 0.08 | 1.63 | 1.63 | 95 | 1007.9 |
| 20260902230607 | 13 | 0 | 0.0 | 0.0 | 0.08 | 1.63 | 1.63 | 95 | 1007.9 |
| 20260902230054 | 13 | 0 | 0.0 | 0.0 | 0.08 | 1.63 | 1.63 | 95 | 1007.8 |
| 20260902225541 | 13 | 0 | 0.0 | 0.0 | 0.05 | 1.63 | 1.63 | 95 | 1007.8 |
| 20260902225028 | 13 | 0 | 0.0 | 0.0 | 0.05 | 1.60 | 1.60 | 95 | 1007.8 |
| 20260902224516 | 13 | 0 | 0.0 | 0.0 | 0.00 | 1.55 | 1.55 | 95 | 1007.8 |
| 20260902223449 | 13 | 0 | 0.0 | 0.0 | 0.00 | 1.55 | 1.55 | 95 | 1007.7 |
| 20260902222936 | 13 | 0 | 0.0 | 0.0 | 0.05 | 1.55 | 1.55 | 94 | 1007.5 |
| 20260902222423 | 13 | 0 | 0.0 | 0.0 | 0.05 | 1.55 | 1.55 | 95 | 1007.5 |
| 20260902221910 | 13 | 0 | 0.0 | 0.0 | 0.05 | 1.55 | 1.55 | 95 | 1007.4 |
| 20260902221357 | 13 | 0 | 0.0 | 0.0 | 0.05 | 1.55 | 1.55 | 95 | 1007.4 |
| 20260902220844 | 12 | 0 | 0.0 | 0.0 | 0.10 | 1.55 | 1.55 | 95 | 1007.3 |
| 20260902215820 | 13 | 0 | 0.0 | 0.0 | 0.10 | 1.55 | 1.55 | 95 | 1007.4 |
| 20260902214752 | 12 | 0 | 0.0 | 0.0 | 0.10 | 1.55 | 1.55 | 95 | 1007.5 |
| 20260902214239 | 12 | 0 | 0.0 | 9.7 | 0.10 | 1.55 | 1.55 | 95 | 1007.5 |
| 20260902213726 | 12 | 0 | 0.0 | 9.7 | 0.15 | 1.55 | 1.55 | 95 | 1007.4 |
| 20260902213213 | 12 | 158 | 1.6 | 9.7 | 0.15 | 1.55 | 1.55 | 95 | 1007.4 |
| 20260902212700 | 12 | 274 | 3.2 | 25.7 | 0.15 | 1.55 | 1.55 | 94 | 1007.4 |
| 20260902212147 | 12 | 275 | 0.0 | 25.7 | 0.15 | 1.50 | 1.50 | 94 | 1007.2 |
| 20260902211634 | 12 | 275 | 8.0 | 25.7 | 0.20 | 1.50 | 1.50 | 94 | 1007.2 |
| 20260902211121 | 12 | 194 | 4.8 | 25.7 | 0.20 | 1.50 | 1.50 | 94 | 1007.2 |
| 20260902210608 | 13 | 232 | 6.4 | 25.7 | 0.23 | 1.47 | 1.47 | 94 | 1007.1 |
| 20260902210055 | 12 | 224 | 6.4 | 17.7 | 0.23 | 1.47 | 1.47 | 94 | 1007.1 |
| 20260902205542 | 12 | 270 | 3.2 | 16.1 | 0.28 | 1.45 | 1.45 | 94 | 1007.0 |
| 20260902205029 | 12 | 211 | 4.8 | 29.0 | 0.28 | 1.45 | 1.45 | 94 | 1006.9 |
| 20260902204516 | 12 | 0 | 6.4 | 29.0 | 0.28 | 1.45 | 1.45 | 94 | 1006.8 |
| 20260902204003 | 12 | 232 | 9.7 | 29.0 | 0.28 | 1.45 | 1.45 | 94 | 1006.8 |
| 20260902203450 | 13 | 215 | 4.8 | 22.5 | 0.25 | 1.42 | 1.42 | 94 | 1006.7 |
| 20260902202937 | 12 | 176 | 8.0 | 25.7 | 0.28 | 1.40 | 1.40 | 94 | 1006.7 |
| 20260902202424 | 13 | 210 | 0.0 | 25.7 | 0.28 | 1.37 | 1.37 | 94 | 1006.7 |
| 20260902201911 | 12 | 194 | 3.2 | 25.7 | 0.28 | 1.35 | 1.35 | 94 | 1006.7 |
| 20260902201358 | 13 | 236 | 3.2 | 16.1 | 0.28 | 1.30 | 1.30 | 94 | 1006.7 |
| 20260902200845 | 12 | 162 | 0.0 | 38.6 | 0.23 | 1.27 | 1.27 | 93 | 1006.7 |
| 20260902200332 | 12 | 189 | 11.3 | 38.6 | 0.23 | 1.24 | 1.24 | 94 | 1006.8 |
| 20260902195819 | 12 | 291 | 4.8 | 38.6 | 0.23 | 1.22 | 1.22 | 93 | 1006.7 |
| 20260902195307 | 12 | 158 | 4.8 | 30.6 | 0.23 | 1.19 | 1.19 | 93 | 1006.5 |
| 20260902194753 | 12 | 221 | 3.2 | 30.6 | 0.25 | 1.17 | 1.17 | 93 | 1006.5 |
| 20260902194240 | 13 | 200 | 8.0 | 30.6 | 0.25 | 1.17 | 1.17 | 93 | 1006.3 |
| 20260902193727 | 13 | 266 | 3.2 | 14.5 | 0.30 | 1.14 | 1.14 | 93 | 1006.3 |
| 20260902193214 | 12 | 225 | 4.8 | 32.2 | 0.30 | 1.14 | 1.14 | 93 | 1006.1 |
| 20260902192702 | 13 | 246 | 3.2 | 32.2 | 0.25 | 1.12 | 1.12 | 93 | 1006.0 |
| 20260902192148 | 13 | 239 | 8.0 | 32.2 | 0.25 | 1.07 | 1.07 | 93 | 1006.0 |
| 20260902191635 | 13 | 292 | 6.4 | 25.7 | 0.23 | 1.04 | 1.04 | 93 | 1005.9 |
| 20260902191122 | 13 | 163 | 6.4 | 32.2 | 0.23 | 1.02 | 1.02 | 92 | 1005.9 |
| 20260902190609 | 13 | 281 | 0.0 | 32.2 | 0.25 | 0.99 | 0.99 | 92 | 1005.7 |
| 20260902190148 | 13 | 219 | 8.0 | 32.2 | 0.25 | 0.99 | 0.99 | 92 | 1005.7 |
| 20260902190056 | 13 | 219 | 8.0 | 32.2 | 0.25 | 0.99 | 0.99 | 92 | 1005.7 |
| 20260902185543 | 13 | 254 | 1.6 | 22.5 | 0.28 | 0.97 | 0.97 | 92 | 1005.7 |
| 20260902185030 | 13 | 277 | 4.8 | 20.9 | 0.28 | 0.94 | 0.94 | 92 | 1005.8 |
| 20260902184004 | 13 | 0 | 6.4 | 16.1 | 0.33 | 0.91 | 0.91 | 92 | 1005.6 |
| 20260902183451 | 13 | 0 | 0.0 | 14.5 | 0.30 | 0.86 | 0.86 | 92 | 1005.6 |
| 20260902182938 | 13 | 288 | 0.0 | 14.5 | 0.28 | 0.84 | 0.84 | 92 | 1005.5 |
| 20260902182425 | 13 | 183 | 1.6 | 14.5 | 0.28 | 0.84 | 0.84 | 92 | 1005.3 |
| 20260902181912 | 13 | 0 | 0.0 | 12.9 | 0.25 | 0.81 | 0.81 | 92 | 1005.4 |
| 20260902181359 | 13 | 152 | 0.0 | 9.7 | 0.25 | 0.79 | 0.79 | 92 | 1005.2 |
| 20260902180846 | 13 | 194 | 0.0 | 25.7 | 0.20 | 0.79 | 0.79 | 92 | 1005.1 |
| 20260902175820 | 13 | 296 | 8.0 | 25.7 | 0.15 | 0.74 | 0.74 | 91 | 1005.0 |
| 20260902175308 | 13 | 217 | 4.8 | 24.1 | 0.15 | 0.69 | 0.69 | 91 | 1004.9 |
| 20260902174754 | 13 | 180 | 1.6 | 20.9 | 0.10 | 0.64 | 0.64 | 91 | 1004.9 |
| 20260902174241 | 13 | 149 | 0.0 | 8.0 | 0.10 | 0.58 | 0.58 | 91 | 1004.9 |
| 20260902173728 | 13 | 175 | 3.2 | 25.7 | 0.08 | 0.56 | 0.56 | 91 | 1004.8 |
| 20260902173215 | 13 | 0 | 0.0 | 25.7 | 0.08 | 0.56 | 0.56 | 91 | 1004.7 |
| 20260902172149 | 13 | 144 | 4.8 | 22.5 | 0.10 | 0.56 | 0.53 | 91 | 1004.7 |
| 20260902171636 | 13 | 168 | 11.3 | 22.5 | 0.13 | 0.56 | 0.53 | 91 | 1004.6 |
| 20260902171123 | 13 | 212 | 3.2 | 17.7 | 0.13 | 0.56 | 0.53 | 91 | 1004.6 |
| 20260902170609 | 13 | 135 | 1.6 | 16.1 | 0.20 | 0.56 | 0.53 | 91 | 1004.6 |
| 20260902170057 | 13 | 259 | 1.6 | 16.1 | 0.20 | 0.56 | 0.53 | 91 | 1004.4 |
| 20260902165544 | 13 | 135 | 6.4 | 16.1 | 0.23 | 0.51 | 0.51 | 91 | 1004.7 |
| 20260902165031 | 13 | 159 | 0.0 | 11.3 | 0.23 | 0.51 | 0.51 | 91 | 1004.7 |
| 20260902164517 | 13 | 0 | 3.2 | 11.3 | 0.23 | 0.48 | 0.48 | 91 | 1004.6 |
| 20260902164005 | 13 | 0 | 0.0 | 11.3 | 0.23 | 0.48 | 0.48 | 91 | 1004.6 |
| 20260902163451 | 13 | 0 | 3.2 | 11.3 | 0.23 | 0.48 | 0.48 | 91 | 1004.6 |
| 20260902162939 | 13 | 85 | 0.0 | 4.8 | 0.25 | 0.46 | 0.46 | 90 | 1004.8 |
| 20260902162427 | 12 | 154 | 0.0 | 20.9 | 0.25 | 0.46 | 0.46 | 90 | 1004.9 |
| 20260902161912 | 13 | 260 | 0.0 | 20.9 | 0.25 | 0.43 | 0.43 | 90 | 1004.9 |
| 20260902161359 | 13 | 78 | 6.4 | 20.9 | 0.25 | 0.41 | 0.41 | 90 | 1005.1 |
| 20260902160846 | 13 | 133 | 0.0 | 12.9 | 0.18 | 0.38 | 0.38 | 90 | 1005.3 |
| 20260902160333 | 13 | 208 | 3.2 | 9.7 | 0.18 | 0.36 | 0.36 | 90 | 1005.5 |
| 20260902155820 | 13 | 238 | 1.6 | 19.3 | 0.15 | 0.33 | 0.33 | 89 | 1005.5 |
| 20260902155307 | 13 | 177 | 1.6 | 19.3 | 0.15 | 0.30 | 0.30 | 89 | 1005.5 |
| 20260902154241 | 13 | 165 | 0.0 | 14.5 | 0.18 | 0.25 | 0.25 | 89 | 1005.8 |
| 20260902153215 | 13 | 0 | 0.0 | 0.0 | 0.18 | 0.23 | 0.23 | 88 | 1005.8 |
| 20260902152702 | 13 | 88 | 0.0 | 9.7 | 0.15 | 0.20 | 0.20 | 88 | 1005.9 |
| 20260902152149 | 13 | 88 | 0.0 | 9.7 | 0.15 | 0.18 | 0.18 | 87 | 1005.9 |
| 20260902151636 | 13 | 196 | 0.0 | 9.7 | 0.13 | 0.18 | 0.18 | 87 | 1006.0 |
| 20260902150057 | 13 | 189 | 4.8 | 24.1 | 0.13 | 0.18 | 0.15 | 85 | 1006.1 |
| 20260902145544 | 13 | 172 | 0.0 | 17.7 | 0.10 | 0.13 | 0.13 | 85 | 1006.0 |
| 20260902145031 | 13 | 259 | 0.0 | 17.7 | 0.10 | 0.13 | 0.13 | 84 | 1006.2 |
| 20260902144518 | 14 | 166 | 1.6 | 16.1 | 0.05 | 0.10 | 0.10 | 83 | 1006.2 |
| 20260902144007 | 14 | 197 | 8.0 | 16.1 | 0.05 | 0.08 | 0.08 | 82 | 1006.3 |
| 20260902143453 | 15 | 0 | 0.0 | 14.5 | 0.03 | 0.08 | 0.08 | 82 | 1006.1 |
| 20260902142939 | 15 | 168 | 3.2 | 19.3 | 0.03 | 0.05 | 0.05 | 81 | 1006.0 |
| 20260902142426 | 15 | 85 | 1.6 | 19.3 | 0.03 | 0.05 | 0.03 | 81 | 1006.0 |
| 20260902141913 | 15 | 179 | 6.4 | 19.3 | 0.03 | 0.05 | 0.03 | 80 | 1006.0 |
| 20260902141401 | 16 | 119 | 1.6 | 16.1 | 0.03 | 0.05 | 0.03 | 80 | 1006.0 |
| 20260902140847 | 16 | 207 | 1.6 | 16.1 | 0.03 | 0.05 | 0.03 | 79 | 1006.0 |
| 20260902140335 | 16 | 238 | 1.6 | 33.8 | 0.03 | 0.05 | 0.03 | 80 | 1006.0 |
| 20260902135821 | 16 | 183 | 4.8 | 33.8 | 0.03 | 0.03 | 0.03 | 80 | 1006.1 |
| 20260902135308 | 15 | 92 | 6.4 | 30.6 | 0.03 | 0.03 | 0.03 | 80 | 1006.1 |
| 20260902134755 | 15 | 210 | 12.9 | 25.7 | 0.03 | 0.03 | 0.03 | 81 | 1006.2 |
| 20260902134242 | 15 | 103 | 4.8 | 19.3 | 0.03 | 0.03 | 0.03 | 82 | 1006.2 |
| 20260902133729 | 16 | 239 | 6.4 | 32.2 | 0.03 | 0.03 | 0.03 | 82 | 1006.3 |
| 20260902133216 | 15 | 201 | 9.7 | 32.2 | 0.03 | 0.03 | 0.03 | 83 | 1006.3 |
| 20260902132703 | 15 | 165 | 11.3 | 32.2 | 0.00 | 0.03 | 0.03 | 83 | 1006.4 |
| 20260902132151 | 15 | 126 | 8.0 | 19.3 | 0.00 | 0.03 | 0.00 | 84 | 1006.5 |
| 20260902131637 | 15 | 127 | 0.0 | 22.5 | 0.00 | 0.03 | 0.00 | 84 | 1006.5 |
| 20260902131126 | 15 | 268 | 1.6 | 22.5 | 0.00 | 0.03 | 0.00 | 84 | 1006.6 |
| 20260902130611 | 14 | 170 | 4.8 | 22.5 | 0.00 | 0.03 | 0.00 | 85 | 1006.7 |
| 20260902130059 | 14 | 147 | 6.4 | 20.9 | 0.00 | 0.03 | 0.00 | 85 | 1006.8 |
| 20260902125546 | 14 | 149 | 3.2 | 20.9 | 0.00 | 0.03 | 0.00 | 85 | 1006.7 |
| 20260902124519 | 14 | 0 | 0.0 | 0.0 | 0.00 | 0.03 | 0.00 | 85 | 1007.1 |
| 20260902123453 | 13 | 187 | 1.6 | 19.3 | 0.00 | 0.03 | 0.00 | 85 | 1007.3 |
| 20260902122940 | 14 | 319 | 0.0 | 19.3 | 0.00 | 0.03 | 0.00 | 85 | 1007.3 |
| 20260902122427 | 13 | 72 | 0.0 | 16.1 | 0.00 | 0.03 | 0.00 | 85 | 1007.4 |
| 20260902121914 | 14 | 141 | 0.0 | 16.1 | 0.00 | 0.03 | 0.00 | 84 | 1007.6 |
| 20260902121402 | 14 | 154 | 0.0 | 12.9 | 0.00 | 0.03 | 0.00 | 84 | 1007.7 |
| 20260902120848 | 14 | 158 | 0.0 | 22.5 | 0.00 | 0.03 | 0.00 | 83 | 1007.8 |
| 20260902120335 | 14 | 274 | 1.6 | 22.5 | 0.00 | 0.03 | 0.00 | 82 | 1007.9 |
| 20260902115822 | 15 | 187 | 6.4 | 22.5 | 0.00 | 0.05 | 0.00 | 81 | 1007.8 |
| 20260902115310 | 15 | 177 | 1.6 | 14.5 | 0.00 | 0.05 | 0.00 | 81 | 1007.9 |
| 20260902114756 | 15 | 249 | 0.0 | 32.2 | 0.00 | 0.05 | 0.00 | 80 | 1007.8 |
| 20260902114243 | 16 | 183 | 11.3 | 32.2 | 0.00 | 0.05 | 0.00 | 78 | 1008.0 |
| 20260902113217 | 16 | 172 | 8.0 | 29.0 | 0.00 | 0.05 | 0.00 | 78 | 1007.9 |
| 20260902112704 | 16 | 226 | 8.0 | 29.0 | 0.00 | 0.05 | 0.00 | 79 | 1008.0 |
| 20260902111638 | 16 | 261 | 1.6 | 22.5 | 0.00 | 0.05 | 0.00 | 79 | 1008.0 |
| 20260902111125 | 16 | 187 | 4.8 | 22.5 | 0.00 | 0.05 | 0.00 | 79 | 1008.1 |
| 20260902110612 | 16 | 184 | 4.8 | 12.9 | 0.00 | 0.05 | 0.00 | 79 | 1008.0 |
| 20260902110149 | 16 | 187 | 3.2 | 22.5 | 0.00 | 0.05 | 0.00 | 79 | 1008.2 |
| 20260902110059 | 16 | 187 | 3.2 | 22.5 | 0.00 | 0.05 | 0.00 | 79 | 1008.2 |
| 20260902105546 | 16 | 249 | 0.0 | 22.5 | 0.00 | 0.05 | 0.00 | 79 | 1008.2 |
| 20260902105033 | 16 | 250 | 3.2 | 22.5 | 0.00 | 0.05 | 0.00 | 79 | 1008.3 |
| 20260902104520 | 16 | 112 | 1.6 | 16.1 | 0.00 | 0.05 | 0.00 | 79 | 1008.3 |
| 20260902104007 | 16 | 284 | 6.4 | 27.4 | 0.00 | 0.05 | 0.00 | 80 | 1008.5 |
| 20260902103454 | 16 | 274 | 6.4 | 27.4 | 0.00 | 0.05 | 0.00 | 80 | 1008.6 |
| 20260902102941 | 16 | 268 | 6.4 | 27.4 | 0.00 | 0.05 | 0.00 | 80 | 1008.7 |
| 20260902102430 | 16 | 175 | 8.0 | 20.9 | 0.00 | 0.05 | 0.00 | 81 | 1008.6 |
| 20260902101402 | 16 | 281 | 0.0 | 25.7 | 0.00 | 0.05 | 0.00 | 82 | 1008.9 |
| 20260902100849 | 16 | 72 | 12.9 | 25.7 | 0.00 | 0.05 | 0.00 | 82 | 1008.9 |
| 20260902100336 | 16 | 236 | 6.4 | 25.7 | 0.00 | 0.05 | 0.00 | 83 | 1008.9 |
| 20260902095823 | 15 | 207 | 9.7 | 17.7 | 0.00 | 0.05 | 0.00 | 84 | 1008.9 |
| 20260902095310 | 15 | 235 | 1.6 | 22.5 | 0.00 | 0.05 | 0.00 | 84 | 1009.0 |
| 20260902094757 | 15 | 170 | 4.8 | 22.5 | 0.00 | 0.05 | 0.00 | 85 | 1009.1 |
| 20260902094244 | 15 | 180 | 0.0 | 22.5 | 0.00 | 0.05 | 0.00 | 86 | 1009.1 |
| 20260902093731 | 15 | 173 | 1.6 | 14.5 | 0.00 | 0.05 | 0.00 | 86 | 1009.2 |
| 20260902093218 | 14 | 179 | 3.2 | 14.5 | 0.00 | 0.05 | 0.00 | 87 | 1009.3 |
| 20260902092705 | 14 | 217 | 1.6 | 20.9 | 0.00 | 0.05 | 0.00 | 87 | 1009.4 |
| 20260902091639 | 14 | 246 | 3.2 | 20.9 | 0.00 | 0.05 | 0.00 | 87 | 1009.6 |
| 20260902091126 | 14 | 277 | 1.6 | 17.7 | 0.00 | 0.05 | 0.00 | 87 | 1009.7 |
| 20260902090613 | 14 | 0 | 0.0 | 16.1 | 0.00 | 0.05 | 0.00 | 88 | 1009.8 |
| 20260902085547 | 14 | 326 | 3.2 | 14.5 | 0.00 | 0.05 | 0.00 | 88 | 1009.9 |
| 20260902085034 | 14 | 151 | 1.6 | 25.7 | 0.00 | 0.05 | 0.00 | 88 | 1010.0 |
| 20260902084521 | 14 | 221 | 1.6 | 25.7 | 0.00 | 0.05 | 0.00 | 88 | 1010.1 |
| 20260902084008 | 14 | 142 | 8.0 | 25.7 | 0.00 | 0.05 | 0.00 | 88 | 1010.3 |
| 20260902083455 | 14 | 240 | 6.4 | 24.1 | 0.00 | 0.05 | 0.00 | 88 | 1010.2 |
| 20260902082429 | 14 | 266 | 3.2 | 24.1 | 0.00 | 0.05 | 0.00 | 88 | 1010.4 |
| 20260902081403 | 14 | 161 | 3.2 | 25.7 | 0.00 | 0.05 | 0.00 | 88 | 1010.5 |
| 20260902080850 | 14 | 291 | 0.0 | 25.7 | 0.00 | 0.05 | 0.00 | 87 | 1010.5 |
| 20260902080337 | 14 | 203 | 8.0 | 25.7 | 0.00 | 0.05 | 0.00 | 87 | 1010.7 |
| 20260902075311 | 14 | 282 | 8.0 | 24.1 | 0.00 | 0.05 | 0.05 | 87 | 1010.5 |
| 20260902074758 | 14 | 282 | 3.2 | 17.7 | 0.00 | 0.05 | 0.05 | 87 | 1010.6 |
| 20260902074245 | 14 | 210 | 4.8 | 32.2 | 0.00 | 0.05 | 0.05 | 87 | 1010.6 |
| 20260902073732 | 15 | 196 | 8.0 | 32.2 | 0.00 | 0.05 | 0.05 | 86 | 1010.7 |
| 20260902073219 | 14 | 135 | 12.9 | 32.2 | 0.00 | 0.05 | 0.05 | 86 | 1010.7 |
| 20260902072706 | 15 | 245 | 8.0 | 19.3 | 0.00 | 0.05 | 0.05 | 86 | 1010.7 |
| 20260902072153 | 15 | 232 | 0.0 | 19.3 | 0.00 | 0.05 | 0.05 | 86 | 1010.7 |
| 20260902071640 | 15 | 135 | 4.8 | 12.9 | 0.00 | 0.05 | 0.05 | 86 | 1010.7 |
| 20260902071127 | 15 | 219 | 1.6 | 29.0 | 0.00 | 0.05 | 0.05 | 86 | 1010.7 |
| 20260902070614 | 14 | 158 | 3.2 | 29.0 | 0.00 | 0.05 | 0.05 | 86 | 1010.6 |
| 20260902070101 | 15 | 187 | 4.8 | 29.0 | 0.00 | 0.05 | 0.05 | 86 | 1010.7 |
| 20260902064522 | 15 | 257 | 8.0 | 17.7 | 0.00 | 0.05 | 0.05 | 87 | 1010.8 |
| 20260902064009 | 15 | 271 | 4.8 | 17.7 | 0.00 | 0.05 | 0.05 | 87 | 1010.8 |
| 20260902063456 | 15 | 222 | 0.0 | 12.9 | 0.00 | 0.05 | 0.05 | 87 | 1010.8 |
| 20260902062430 | 15 | 259 | 0.0 | 25.7 | 0.00 | 0.05 | 0.05 | 86 | 1010.9 |
| 20260902061917 | 15 | 219 | 8.0 | 25.7 | 0.00 | 0.05 | 0.05 | 86 | 1011.0 |
| 20260902061404 | 15 | 259 | 6.4 | 16.1 | 0.00 | 0.05 | 0.05 | 86 | 1011.1 |
| 20260902060851 | 15 | 305 | 6.4 | 16.1 | 0.00 | 0.05 | 0.05 | 85 | 1011.1 |
| 20260902060338 | 15 | 152 | 3.2 | 25.7 | 0.00 | 0.05 | 0.05 | 85 | 1011.1 |
| 20260902055825 | 15 | 264 | 11.3 | 25.7 | 0.00 | 0.05 | 0.05 | 86 | 1011.2 |
| 20260902055312 | 15 | 280 | 0.0 | 25.7 | 0.00 | 0.05 | 0.05 | 86 | 1011.2 |
| 20260902054759 | 15 | 151 | 4.8 | 16.1 | 0.00 | 0.05 | 0.05 | 86 | 1011.2 |
| 20260902054246 | 15 | 225 | 4.8 | 14.5 | 0.00 | 0.05 | 0.05 | 86 | 1011.2 |
| 20260902053733 | 15 | 138 | 1.6 | 19.3 | 0.00 | 0.05 | 0.05 | 86 | 1011.3 |
| 20260902053220 | 15 | 205 | 0.0 | 19.3 | 0.00 | 0.05 | 0.05 | 86 | 1011.4 |
| 20260902052707 | 15 | 280 | 6.4 | 19.3 | 0.00 | 0.05 | 0.05 | 86 | 1011.4 |
| 20260902052154 | 15 | 182 | 9.7 | 19.3 | 0.00 | 0.05 | 0.05 | 86 | 1011.5 |
| 20260902051641 | 15 | 224 | 0.0 | 19.3 | 0.00 | 0.05 | 0.05 | 86 | 1011.5 |
| 20260902051128 | 15 | 210 | 0.0 | 16.1 | 0.00 | 0.05 | 0.05 | 87 | 1011.5 |
| 20260902050615 | 15 | 193 | 4.8 | 11.3 | 0.00 | 0.05 | 0.05 | 87 | 1011.4 |
| 20260902045549 | 15 | 0 | 0.0 | 22.5 | 0.00 | 0.05 | 0.05 | 87 | 1011.5 |
| 20260902045036 | 15 | 238 | 6.4 | 22.5 | 0.00 | 0.05 | 0.05 | 87 | 1011.6 |
| 20260902044523 | 15 | 0 | 0.0 | 16.1 | 0.00 | 0.05 | 0.05 | 87 | 1011.7 |
| 20260902044010 | 15 | 205 | 11.3 | 20.9 | 0.00 | 0.05 | 0.05 | 87 | 1011.7 |
| 20260902043456 | 15 | 235 | 1.6 | 20.9 | 0.00 | 0.05 | 0.05 | 87 | 1011.8 |
| 20260902042943 | 15 | 239 | 3.2 | 20.9 | 0.00 | 0.05 | 0.05 | 87 | 1011.7 |
| 20260902042430 | 15 | 169 | 1.6 | 17.7 | 0.00 | 0.05 | 0.05 | 87 | 1011.7 |
| 20260902041917 | 15 | 179 | 3.2 | 17.7 | 0.00 | 0.05 | 0.05 | 88 | 1011.7 |
| 20260902041404 | 15 | 232 | 4.8 | 14.5 | 0.00 | 0.05 | 0.05 | 88 | 1011.7 |
| 20260902040851 | 15 | 149 | 1.6 | 14.5 | 0.00 | 0.05 | 0.05 | 88 | 1011.6 |
| 20260902035312 | 15 | 198 | 4.8 | 24.1 | 0.00 | 0.05 | 0.05 | 89 | 1011.6 |
| 20260902034759 | 14 | 163 | 4.8 | 17.7 | 0.00 | 0.05 | 0.05 | 89 | 1011.7 |
| 20260902034246 | 15 | 112 | 4.8 | 17.7 | 0.00 | 0.05 | 0.05 | 89 | 1011.6 |
| 20260902033733 | 15 | 159 | 1.6 | 24.1 | 0.00 | 0.05 | 0.05 | 89 | 1011.7 |
| 20260902033221 | 15 | 263 | 4.8 | 24.1 | 0.00 | 0.05 | 0.05 | 89 | 1011.6 |
| 20260902032707 | 15 | 221 | 9.7 | 24.1 | 0.00 | 0.05 | 0.05 | 89 | 1011.7 |
| 20260902032154 | 15 | 239 | 0.0 | 22.5 | 0.00 | 0.05 | 0.05 | 89 | 1011.6 |
| 20260902031641 | 15 | 239 | 1.6 | 29.0 | 0.00 | 0.05 | 0.05 | 89 | 1011.6 |
| 20260902031128 | 15 | 296 | 12.9 | 29.0 | 0.00 | 0.05 | 0.05 | 89 | 1011.6 |
| 20260902030615 | 14 | 273 | 0.0 | 29.0 | 0.00 | 0.05 | 0.05 | 89 | 1011.6 |